Weather History for KNYL - May, 2013

Change the Weather History Date:

Friday, May 31, 2013

  Actual Average Record
Temperature  
Mean Temperature 87 °F 85 °F  
Max Temperature 100 °F 100 °F 113 °F (2012)
Min Temperature 74 °F 70 °F 52 °F (1878)
Degree Days  
Heating Degree Days 0 0  
Month to date heating degree days 0 0  
Since 1 July heating degree days 705 686  
Cooling Degree Days 22 20  
Month to date cooling degree days 542 506  
Year to date cooling degree days 1061 912  
Growing Degree Days 37 (Base 50)    
Moisture  
Dew Point 52 °F    
Average Humidity 39    
Maximum Humidity 60    
Minimum Humidity 17    
Precipitation  
Precipitation 0.00 in 0.00 in 0.37 in (1965)
Month to date precipitation 0.00 0.08  
Year to date precipitation 1.11 1.32  
Sea Level Pressure  
Sea Level Pressure 29.76 in    
Wind  
Wind Speed 7 mph (South)    
Max Wind Speed 15 mph    
Max Gust Speed 17 mph    
Visibility 10 miles    
Events      
T = Trace of Precipitation, MM = Missing Value Source: NWS Daily Summary

Daily Weather History Graph

Daily Weather History Graph

Search for Another Location

Airport or City:

Trip Planner

Search our weather history database for the weather conditions in past years. The results will help you decide how hot, cold, wet, or windy it might be!

Date:

Astronomy

May. 31, 2013 Rise Set
Actual Time 5:31 AM MST 7:40 PM MST
Civil Twilight 5:03 AM MST 8:08 PM MST
Nautical Twilight 4:29 AM MST 8:43 PM MST
Astronomical Twilight 3:52 AM MST 9:20 PM MST
Moon 12:33 AM MST (5/31) 12:34 PM MST (5/31)
Length of Visible Light 15h 05m
Length of Day
14h 09m
Waning Gibbous, 50% of the Moon is Illuminated
May 31
Waning Gibbous
May 31
Last Quarter
Jun 8
New
Jun 16
First Quarter
Jun 23
Full

Hourly Weather History & Observations

Time (MST) Temp. Heat Index Dew Point Humidity Pressure Visibility Wind Dir Wind Speed Gust Speed Precip Events Conditions
12:57 AM 75.0 °F - 60.1 °F 60% 29.74 in 10.0 mi SSE 10.4 mph - N/A   Clear
1:57 AM 75.0 °F - 57.9 °F 55% 29.74 in 10.0 mi SSE 6.9 mph - N/A   Clear
2:57 AM 75.9 °F - 57.0 °F 52% 29.74 in 10.0 mi SE 9.2 mph - N/A   Clear
3:57 AM 75.0 °F - 57.0 °F 53% 29.74 in 10.0 mi SSE 5.8 mph - N/A   Clear
4:57 AM 75.9 °F - 55.9 °F 50% 29.75 in 10.0 mi SE 9.2 mph - N/A   Clear
5:57 AM 75.9 °F - 54.0 °F 46% 29.77 in 10.0 mi ESE 4.6 mph - N/A   Partly Cloudy
6:57 AM 75.9 °F - 55.9 °F 50% 29.79 in 10.0 mi SSE 11.5 mph - N/A   Partly Cloudy
7:57 AM 81.0 °F 80.5 °F 54.0 °F 39% 29.80 in 10.0 mi SSE 10.4 mph - N/A   Clear
8:57 AM 86.0 °F - 48.0 °F 27% 29.81 in 7.0 mi SSE 11.5 mph - N/A   Clear
9:57 AM 87.1 °F - 50.0 °F 28% 29.82 in 7.0 mi South 11.5 mph - N/A   Clear
10:57 AM 89.1 °F - 51.1 °F 27% 29.82 in 7.0 mi South 8.1 mph - N/A   Clear
11:57 AM 91.9 °F - 48.9 °F 23% 29.81 in 10.0 mi SSW 10.4 mph - N/A   Smoke
12:57 PM 95.0 °F - 48.0 °F 20% 29.80 in 10.0 mi Variable 4.6 mph - N/A   Partly Cloudy
1:57 PM 96.1 °F - 48.0 °F 19% 29.77 in 10.0 mi Variable 4.6 mph - N/A   Clear
2:57 PM 97.0 °F - 46.0 °F 18% 29.75 in 10.0 mi Variable 5.8 mph - N/A   Clear
3:57 PM 98.1 °F - 46.9 °F 18% 29.73 in 10.0 mi Variable 4.6 mph - N/A   Partly Cloudy
4:57 PM 99.0 °F - 48.0 °F 18% 29.71 in 10.0 mi Variable 3.5 mph - N/A   Partly Cloudy
5:57 PM 98.1 °F - 48.0 °F 18% 29.70 in 10.0 mi NW 5.8 mph - N/A   Clear
6:57 PM 97.0 °F - 51.1 °F 21% 29.70 in 10.0 mi West 8.1 mph - N/A   Partly Cloudy
7:57 PM 91.9 °F 89.5 °F 54.0 °F 27% 29.71 in 10.0 mi WSW 6.9 mph - N/A   Partly Cloudy
8:57 PM 89.1 °F 86.9 °F 54.0 °F 30% 29.73 in 10.0 mi SW 5.8 mph - N/A   Clear
9:57 PM 87.1 °F 84.9 °F 53.1 °F 31% 29.74 in 10.0 mi SW 3.5 mph - N/A   Clear
10:57 PM 84.0 °F 82.6 °F 54.0 °F 35% 29.74 in 10.0 mi South 4.6 mph - N/A   Clear
11:57 PM 81.0 °F 80.7 °F 55.0 °F 41% 29.74 in 10.0 mi Calm Calm - N/A   Clear